RH
53 54 48 49 47 41 37 38 49 55 56 60 70 72 63 55 45 43 43 38 43 55 65 74 70 62 70 81 83 97 93 57 24 8 5 5 3 3 3 2 1 1 1 1 1 1 2 3 5 6 8 12 15 17 16 15 15 15 16 19 23 27
40 51 46 42 43 45 38 41 60 63 62 64 72 77 74 68 51 51 59 55 62 75 81 85 84 84 91 94 91 98 101 80 51 24 8 4 3 3 3 2 1 1 1 1 1 1 2 2 4 5 7 10 13 16 16 17 17 16 16 16 18 24
18 34 44 41 34 39 38 47 68 69 70 71 75 82 81 83 76 71 75 75 83 89 92 92 90 94 98 99 98 99 101 92 74 51 24 7 4 2 3 3 1 2 1 1 1 1 1 2 3 4 6 8 11 14 16 18 18 18 18 17 17 21
6 14 38 51 37 32 40 51 67 74 77 75 76 81 82 89 92 86 77 77 87 91 93 92 91 95 97 99 99 98 101 96 79 65 45 20 7 3 2 3 2 1 2 1 -0 1 1 1 3 3 5 5 8 11 14 17 17 18 19 17 18 20
7 6 20 44 44 35 43 52 61 72 75 74 75 73 75 84 90 89 80 77 88 95 92 85 86 90 92 97 99 99 99 90 73 65 58 37 17 8 3 2 2 1 1 2 -0 -0 1 1 2 2 3 4 4 7 11 15 15 16 17 18 18 19
9 8 4 22 42 44 49 55 57 63 66 69 74 72 71 76 82 85 81 79 85 91 91 84 83 84 89 95 94 96 95 80 68 65 60 48 31 16 8 2 1 2 1 2 2 -0 1 1 2 2 3 3 3 4 6 10 12 13 15 17 18 18
9 10 5 6 24 40 52 61 59 56 59 63 69 71 66 66 74 77 75 82 84 81 84 87 86 84 86 90 86 90 91 78 73 67 52 49 43 26 17 10 2 1 2 1 2 1 1 1 1 1 2 2 2 2 3 5 7 9 11 14 16 16
10 8 9 4 7 21 34 54 68 67 65 63 66 67 62 62 69 71 68 77 84 82 84 85 86 84 77 78 83 89 89 80 77 68 51 51 53 40 33 29 13 2 -0 1 2 1 1 1 1 1 1 1 2 1 2 2 3 4 5 8 11 12
11 7 8 7 4 6 10 29 56 74 79 75 74 73 67 65 68 71 69 71 78 82 86 83 79 77 74 75 80 88 88 81 79 72 59 55 59 57 51 47 36 20 5 -0 2 2 1 1 -0 1 1 1 1 1 2 1 1 2 2 3 4 6
10 8 6 6 5 4 4 10 23 51 82 88 84 81 73 67 68 71 71 72 74 75 79 83 80 75 75 76 77 82 82 82 84 77 68 59 58 67 67 58 53 46 25 3 -0 2 1 2 1 1 1 1 1 1 1 1 1 1 1 1 1 2
10 9 7 5 4 3 2 4 7 26 63 81 83 84 81 76 76 75 73 76 76 73 74 79 83 78 72 72 75 75 75 85 91 83 75 65 60 68 70 59 50 50 39 14 3 2 2 1 1 2 1 1 1 1 1 1 1 1 1 1 1 1
10 9 8 5 3 3 1 1 2 10 37 66 78 83 84 82 84 84 79 78 77 76 75 73 76 78 74 76 77 72 73 83 85 82 78 68 63 63 64 63 52 49 46 29 12 2 -0 2 1 2 2 1 1 -0 1 1 1 1 1 1 1 1
11 10 9 6 3 2 1 1 1 1 14 43 65 74 79 82 82 84 85 85 84 83 80 72 68 72 74 77 77 74 77 79 73 73 75 69 67 61 58 64 57 51 52 42 26 11 1 1 2 2 2 2 2 1 1 1 1 1 1 1 1 1
12 12 9 8 5 2 1 -0 1 1 2 15 36 55 76 89 82 77 85 90 89 89 87 80 71 67 67 71 76 77 79 80 72 70 70 68 69 66 61 65 60 56 58 47 32 24 13 4 2 2 3 2 2 2 1 1 1 1 1 1 1 1
13 12 11 9 7 4 3 1 -0 1 1 2 11 25 47 74 84 86 91 92 88 87 88 87 80 71 67 69 73 75 78 79 75 76 79 75 71 71 69 70 69 66 65 53 36 28 23 14 6 2 3 3 2 2 2 2 2 2 1 1 1 1
14 13 12 11 9 7 4 3 2 -0 1 1 3 7 13 34 63 87 98 96 90 86 88 92 88 80 75 71 70 71 73 73 74 82 89 84 76 77 77 76 78 76 69 62 48 36 27 20 14 7 2 2 3 2 2 3 2 2 2 1 2 1
15 14 13 11 10 9 7 5 4 2 1 1 1 3 4 9 27 57 82 92 93 91 93 94 89 85 82 78 79 77 68 63 70 81 86 85 80 79 84 83 81 79 72 66 59 55 48 31 18 12 5 2 2 3 2 2 3 2 3 2 2 2
16 14 13 12 10 9 9 7 6 5 3 2 1 1 3 3 6 18 37 56 71 80 87 90 86 87 90 87 86 83 71 63 66 72 74 78 80 77 83 90 87 79 75 69 60 65 74 62 38 19 10 5 1 2 2 2 2 2 3 3 2 2
18 16 13 12 12 11 10 9 8 8 6 5 4 2 2 2 3 3 7 15 26 38 51 62 68 76 87 91 91 88 80 72 68 68 69 71 74 74 80 89 91 86 84 79 66 64 76 80 65 34 15 11 5 2 2 1 2 2 2 3 2 2
20 18 17 14 14 13 12 11 10 10 9 8 7 6 5 3 3 3 3 3 4 8 13 21 31 41 54 68 81 89 91 87 77 72 74 73 70 71 81 87 88 92 92 87 77 68 70 82 84 55 23 16 11 5 5 2 1 2 1 2 2 2
28 21 20 17 16 15 14 13 12 11 11 10 9 8 7 6 5 5 4 4 3 3 3 4 7 11 17 28 42 59 79 92 90 83 80 81 76 73 83 87 87 94 96 90 83 74 73 82 94 79 47 31 22 12 11 7 3 2 2 2 1 2
35 26 22 21 19 18 17 16 15 14 13 12 12 11 10 8 7 7 6 5 4 4 4 3 3 3 4 7 12 23 42 66 83 89 88 88 86 82 82 82 85 94 95 91 88 84 82 82 90 94 81 65 45 23 15 13 10 6 2 2 2 2
39 29 23 23 22 21 20 19 18 17 16 15 14 13 12 10 9 8 7 6 6 5 4 3 3 3 2 2 3 6 12 28 50 71 84 90 94 93 88 81 78 84 90 91 89 88 90 86 87 96 97 87 71 50 29 16 13 13 9 5 3 3
42 28 22 23 22 23 22 21 20 18 17 16 16 15 13 13 11 10 9 7 7 6 5 5 4 3 2 1 1 2 3 8 19 37 58 73 83 91 94 89 79 77 82 87 86 82 89 90 87 93 96 91 88 82 62 37 24 20 20 15 7 3
42 27 24 25 24 25 25 24 23 20 19 17 16 16 15 14 13 11 10 8 7 7 5 5 5 4 3 2 1 1 1 3 6 15 29 45 58 70 83 90 90 85 79 80 82 80 85 89 89 94 94 93 97 95 85 75 57 34 23 22 17 10
40 29 28 26 25 27 25 25 26 24 23 22 20 19 17 15 14 12 11 9 8 7 6 4 4 4 3 3 2 1 1 1 3 5 12 23 35 47 60 71 81 88 87 83 81 81 86 89 90 93 90 90 98 95 89 92 86 67 48 34 26 19
36 30 30 28 28 28 26 25 26 25 25 25 23 22 21 18 16 14 12 10 9 7 6 5 4 4 3 3 3 2 2 1 2 3 4 9 16 26 37 43 50 66 83 87 83 82 87 87 84 87 86 86 94 96 93 90 86 86 80 58 40 33
36 34 34 32 31 30 29 27 26 26 25 24 23 22 21 21 19 18 15 12 11 8 7 6 5 4 3 3 3 3 3 2 1 2 3 4 7 12 17 22 26 36 56 77 84 84 85 84 80 80 80 81 84 88 91 92 88 87 89 81 70 62
39 38 36 36 34 31 30 29 28 27 26 25 24 22 21 22 21 20 18 16 14 11 9 7 5 5 4 3 3 3 3 3 2 2 2 2 4 6 8 11 15 19 29 50 69 83 89 85 78 77 78 78 78 79 81 87 94 96 92 89 87 81
41 39 38 37 36 33 30 30 29 28 28 27 25 23 22 22 22 22 21 19 17 14 11 9 7 6 5 4 4 4 3 3 3 2 2 2 2 3 4 6 9 12 15 23 39 60 74 73 71 76 77 77 78 79 78 78 86 97 98 93 90 82
43 41 40 40 39 37 33 30 29 28 29 28 27 25 22 21 22 23 23 21 19 17 15 12 9 7 6 5 4 4 4 3 3 3 2 3 3 2 3 3 4 6 8 11 17 28 39 52 70 82 81 80 80 77 78 79 80 91 99 99 93 83
44 44 42 41 41 38 33 30 29 30 30 30 29 26 23 22 23 23 24 23 22 20 17 15 12 9 7 6 5 5 4 4 4 3 3 2 3 2 3 3 3 4 5 7 10 15 24 39 56 66 65 66 68 69 73 78 81 87 95 100 99 90
45 45 43 42 40 37 33 31 31 32 32 31 30 27 23 23 24 25 25 24 24 23 21 19 16 13 10 7 6 6 5 5 4 4 4 3 3 2 2 3 2 3 4 5 7 11 22 32 32 32 33 37 49 60 62 64 75 86 91 95 98 97
48 46 43 40 37 35 33 32 34 35 35 33 30 27 24 23 25 26 26 25 25 24 24 23 21 19 15 11 8 6 6 6 5 5 4 4 4 3 3 3 2 3 3 4 5 5 12 21 21 18 18 23 35 42 39 40 54 75 86 89 93 96
48 44 39 36 33 32 31 31 33 35 35 33 30 26 24 25 27 28 28 27 26 24 24 23 22 22 21 18 14 10 7 5 5 6 6 5 5 4 4 3 2 3 3 4 5 5 6 10 15 17 14 15 22 23 23 25 30 47 69 82 91 93
45 40 34 31 30 30 30 30 32 34 34 32 29 28 27 28 31 31 30 29 28 26 25 22 22 21 20 21 19 16 13 9 6 5 5 6 5 5 4 4 3 3 3 4 5 6 6 5 8 13 13 16 20 19 22 27 25 25 40 65 86 92
41 37 32 30 32 31 31 31 33 34 34 32 31 32 32 33 35 34 32 32 31 30 27 24 23 21 20 19 19 18 17 14 11 8 5 5 5 5 4 4 4 3 4 5 5 5 6 5 5 7 14 20 21 21 21 25 28 25 29 49 73 87
Wind_Speed
9 10 11 10 10 11 10 9 9 9 10 11 10 8 5 4 5 5 5 5 6 5 5 4 4 5 5 6 6 5 5 6 8 11 12 13 13 14 14 15 16 20 27 30 29 29 27 27 26 26 26 26 25 25 25 24 24 25 25 25 24 22
11 11 11 10 10 10 10 9 9 10 10 11 11 8 5 5 5 6 6 6 6 5 5 4 3 5 6 6 5 5 6 7 7 9 11 12 12 14 14 15 17 20 26 30 29 29 28 27 26 26 26 26 26 25 24 23 23 23 23 24 24 23
15 13 11 10 12 12 11 10 9 9 11 11 12 10 7 7 7 6 7 7 7 6 6 5 3 4 5 6 5 5 7 8 6 7 9 11 12 13 15 16 17 20 24 29 30 29 28 27 27 26 26 26 26 25 24 24 23 22 23 23 23 23
14 15 12 11 13 14 11 10 10 10 12 12 12 11 9 8 9 8 8 9 9 7 8 8 7 6 4 5 5 4 7 7 6 7 8 9 12 13 15 16 18 20 23 28 30 30 29 28 27 26 26 26 26 25 24 24 23 22 22 22 22 23
11 12 13 13 13 14 12 11 13 12 12 13 13 13 12 9 10 10 9 11 10 9 11 11 9 7 5 6 6 5 5 4 5 8 8 9 11 13 14 16 17 20 22 26 30 32 31 30 29 27 27 27 26 25 25 24 23 22 22 21 21 22
11 11 12 15 15 14 13 13 13 13 12 14 15 15 15 12 11 12 12 12 12 14 14 12 10 9 7 7 7 8 6 4 5 7 7 8 10 13 14 15 17 19 21 25 29 32 32 31 30 30 28 27 26 25 25 25 24 22 21 20 21 21
13 12 12 15 16 15 16 15 14 13 13 13 14 15 15 14 14 13 13 14 13 15 15 12 11 10 9 8 8 10 8 5 4 5 5 6 10 12 13 14 16 18 21 23 26 30 32 31 30 31 30 28 27 26 26 25 25 24 22 21 20 20
14 14 14 14 16 18 18 17 15 14 14 14 14 15 14 14 15 15 15 15 13 14 14 12 11 10 10 10 8 9 8 5 4 4 3 5 9 11 11 13 14 16 20 23 25 28 31 31 30 30 30 30 28 27 27 26 26 25 24 22 21 21
14 15 16 16 17 19 19 19 18 16 16 15 15 15 15 15 16 15 15 15 13 14 12 10 11 11 12 12 10 9 8 6 6 6 4 4 9 10 10 12 12 14 18 22 24 27 30 31 31 31 30 30 29 28 28 27 26 25 24 23 23 23
13 14 16 17 18 18 19 21 20 19 17 16 17 17 17 16 16 16 15 14 14 15 13 11 13 13 13 13 11 10 9 9 9 8 5 6 9 10 10 11 13 14 16 20 24 26 28 31 32 31 31 31 29 29 29 28 27 26 25 25 24 24
10 12 14 16 17 17 19 21 22 22 20 18 18 18 17 17 17 17 17 16 16 16 14 14 14 13 13 12 12 11 10 11 11 10 9 8 10 11 12 13 15 16 16 18 22 26 28 30 31 32 32 32 31 31 30 29 28 27 27 27 25 24
9 10 12 15 16 18 19 20 23 25 24 21 20 20 20 19 18 18 19 19 19 18 16 15 14 14 14 14 14 13 13 14 14 15 14 12 11 12 14 14 16 17 17 17 20 24 28 29 30 31 31 32 33 32 31 31 29 29 28 28 27 25
10 10 11 13 15 17 18 20 22 25 26 25 24 23 23 23 21 20 20 21 20 20 18 17 17 16 16 16 16 16 17 17 17 18 17 15 13 13 14 14 15 15 16 17 19 21 24 27 29 30 31 32 33 33 33 32 31 31 30 30 28 27
11 11 11 12 14 15 17 19 21 23 25 27 28 27 25 24 23 23 22 22 21 21 19 20 20 19 19 19 19 18 19 20 20 20 19 18 17 15 15 15 15 14 15 16 18 20 21 24 27 29 30 31 32 33 33 33 33 33 33 32 31 29
13 12 12 12 13 14 16 17 19 21 23 26 29 30 29 26 24 23 23 23 23 22 21 22 22 21 21 21 21 21 22 22 21 19 19 20 20 18 17 16 15 16 16 16 15 18 20 21 24 27 29 30 32 34 34 33 34 34 34 33 32 31
14 14 14 14 14 13 14 16 18 19 21 24 26 29 31 30 29 26 26 25 25 24 22 22 23 22 23 23 24 24 24 23 21 20 22 22 21 19 19 18 18 17 17 17 16 16 19 21 23 25 27 28 30 33 34 34 35 35 35 34 33 32
14 15 15 15 15 14 14 15 17 18 20 22 24 26 29 31 32 32 31 30 28 26 25 25 24 23 24 25 26 25 24 23 23 24 25 23 21 21 22 22 21 19 17 18 17 15 16 19 22 24 25 26 27 30 33 34 35 36 36 36 34 33
14 15 15 15 15 15 15 15 16 17 18 20 22 24 26 28 31 34 35 35 33 31 30 30 27 25 26 26 27 26 25 26 27 26 25 25 23 23 26 25 22 20 18 18 17 15 15 16 20 23 24 25 25 26 29 32 34 36 37 37 35 34
13 14 15 14 14 15 15 16 16 17 17 19 20 22 24 26 28 30 33 35 36 36 36 35 34 31 30 29 29 28 27 28 29 29 28 26 24 25 28 26 23 23 22 20 18 18 17 16 18 21 23 24 25 25 26 28 31 34 36 37 37 36
14 14 14 14 14 15 15 16 16 17 17 18 19 21 22 24 26 27 28 30 33 34 35 36 37 37 36 35 33 32 30 30 31 32 31 29 28 29 29 27 27 27 25 23 21 19 19 19 20 21 23 24 25 25 25 25 27 30 33 36 37 38
14 14 15 15 15 15 15 16 17 18 18 19 19 20 21 22 25 26 27 28 30 31 31 33 35 37 38 38 38 37 36 34 33 32 34 32 32 33 32 30 31 32 28 23 21 21 21 21 22 23 23 22 23 24 25 26 27 28 30 32 35 37
14 14 15 15 15 15 16 16 17 18 19 20 21 21 22 22 23 25 26 27 29 30 30 30 32 33 35 37 38 39 39 39 37 35 35 34 34 35 35 34 33 33 32 26 23 22 22 23 25 25 24 22 23 26 28 28 28 28 29 31 32 35
13 14 14 15 15 14 15 16 17 18 19 20 21 22 23 23 23 24 25 26 27 28 28 30 31 31 32 34 35 38 39 40 40 39 38 35 35 36 36 36 36 35 34 32 30 26 24 25 25 25 25 24 24 26 28 29 29 29 29 31 32 33
12 13 13 13 12 12 12 13 15 16 18 19 20 21 23 24 24 25 25 26 26 26 27 29 31 31 31 33 34 35 36 39 40 41 41 39 38 36 34 35 37 38 36 36 35 31 28 27 26 27 27 25 22 23 26 28 29 29 29 31 33 34
11 10 10 9 9 9 9 10 11 12 14 16 17 19 20 22 24 25 26 26 25 25 26 28 29 30 32 33 33 33 34 36 38 40 42 42 41 39 37 35 36 38 39 39 38 35 33 32 28 28 30 28 24 22 20 19 24 29 31 32 34 35
10 9 8 7 7 8 9 9 9 10 11 13 14 16 18 20 21 23 24 25 25 25 25 26 28 29 30 32 33 33 34 34 35 37 40 41 42 41 40 39 37 37 38 40 40 38 38 35 29 28 30 31 31 27 19 14 18 24 28 31 33 35
10 8 7 7 7 8 9 9 9 10 10 12 13 15 16 18 19 20 22 23 24 24 24 24 26 27 28 30 31 33 34 34 35 35 37 39 40 41 41 41 40 39 38 40 41 39 39 37 32 32 31 30 32 33 30 24 19 17 20 27 30 31
11 10 8 9 10 10 11 11 11 11 12 12 13 14 16 17 18 19 20 21 22 23 24 24 24 26 27 28 30 31 33 34 35 36 37 38 38 39 41 41 41 41 39 40 41 40 40 38 36 36 35 34 34 35 37 34 27 20 18 21 25 26
12 11 10 10 11 12 13 14 14 14 14 14 14 15 16 17 19 20 20 20 21 22 23 24 25 25 26 27 28 29 31 32 34 35 37 38 39 39 39 40 41 42 41 41 40 40 39 39 39 39 39 40 39 38 39 39 35 29 24 21 21 22
12 13 11 11 13 14 16 17 17 17 17 17 17 17 17 17 18 19 21 21 22 22 22 24 25 26 27 27 28 29 29 31 32 33 35 37 39 40 40 40 41 42 42 42 41 41 41 41 41 41 42 43 43 42 40 39 40 36 31 27 24 23
13 14 14 14 16 17 18 19 20 19 19 19 19 19 19 18 18 17 19 21 22 23 23 24 25 26 27 29 30 30 30 31 31 32 34 35 37 39 40 40 41 42 43 43 43 42 43 42 42 42 42 43 43 42 40 40 41 39 36 33 29 28
15 16 17 17 19 20 21 22 22 22 22 21 21 21 20 20 19 18 17 18 20 22 24 24 25 26 27 29 30 32 32 32 33 33 33 34 35 37 39 40 41 42 43 43 44 43 43 42 43 43 43 44 44 43 41 42 42 41 39 36 34 32
17 19 20 20 21 23 23 23 23 23 23 23 23 22 22 21 21 20 18 17 17 19 21 23 25 26 27 28 30 32 34 34 34 35 35 35 34 35 37 39 40 41 42 44 44 44 44 43 45 46 46 47 47 44 44 44 44 43 41 39 38 34
19 21 22 23 23 24 25 24 24 25 25 25 25 24 23 22 22 21 20 19 18 18 19 20 22 25 27 28 30 31 33 35 36 37 37 36 36 35 36 37 38 39 40 43 44 45 46 44 44 46 47 48 47 47 47 45 46 47 45 43 43 39
22 24 25 24 24 25 25 25 25 27 27 27 27 26 25 23 22 22 21 21 20 20 20 20 21 22 24 26 29 31 33 34 36 38 39 38 38 37 36 36 37 38 38 40 43 45 46 46 45 45 46 48 47 47 47 45 46 49 48 46 45 44
24 26 26 25 24 25 25 26 26 28 29 29 28 26 25 24 23 22 22 21 22 22 22 23 23 23 23 25 27 29 31 33 35 37 39 39 40 39 38 37 37 37 37 38 40 42 45 46 46 46 46 47 46 46 46 45 45 47 48 47 45 43
25 27 26 25 25 26 26 26 27 28 28 28 27 26 25 24 23 23 23 23 23 24 24 25 25 26 26 26 26 27 29 31 34 36 37 38 40 40 41 40 38 38 37 37 39 41 42 44 46 46 46 46 46 45 45 44 43 45 45 46 46 45
Wind_Direction
236 246 240 237 246 251 252 247 239 235 229 229 225 219 226 218 198 178 167 167 170 174 165 141 127 144 159 157 139 128 124 140 174 183 183 186 184 181 183 184 181 180 183 182 180 180 179 178 175 175 174 173 172 171 173 175 179 184 186 189 188 187
228 242 240 231 237 244 245 238 228 224 219 220 218 208 204 194 176 166 164 160 163 167 166 155 127 147 164 155 155 170 157 145 167 185 185 187 190 188 186 188 185 181 184 186 183 181 182 180 178 179 178 178 176 175 175 175 182 186 187 191 189 190
231 233 235 230 228 233 234 228 223 219 218 218 212 205 202 191 178 172 172 165 157 162 175 170 167 181 168 158 170 187 175 157 155 180 184 187 194 194 190 189 190 186 185 188 187 184 184 184 182 182 182 182 182 180 177 176 183 186 189 191 188 192
236 230 228 230 229 229 226 223 222 215 215 215 212 207 204 196 187 183 180 177 168 171 182 183 196 204 184 176 186 188 175 164 156 164 167 180 193 196 194 192 192 191 187 189 190 188 186 187 187 185 185 186 187 185 181 181 185 187 192 190 186 192
243 233 223 224 231 231 224 223 223 215 212 213 217 216 212 206 192 190 193 188 183 197 197 190 197 198 195 193 194 204 189 183 183 170 163 171 186 194 197 195 195 195 191 191 192 192 190 190 190 188 188 190 190 188 185 187 189 191 194 188 186 192
250 246 228 221 226 228 223 226 227 224 221 218 224 224 218 216 206 196 198 198 197 208 203 192 198 196 195 195 197 212 207 201 196 186 182 176 184 192 196 198 197 198 197 194 195 196 196 194 192 192 193 193 193 190 189 192 193 195 196 189 189 193
251 252 240 227 225 222 219 223 228 230 229 228 232 233 226 221 221 210 204 207 203 206 204 195 200 200 198 202 204 203 200 210 196 190 200 188 192 196 196 200 198 200 201 199 198 199 201 200 197 197 197 197 196 193 193 196 198 199 198 194 194 198
250 250 248 239 231 227 222 219 220 226 231 231 231 238 237 226 224 221 214 212 205 210 214 199 193 199 204 207 209 198 193 213 202 197 221 200 201 202 202 203 199 202 205 203 202 202 203 204 204 204 202 202 200 198 198 199 202 203 203 200 199 204
248 248 248 244 238 236 232 224 217 221 229 232 231 235 237 230 227 229 226 220 213 218 224 204 188 197 206 202 204 206 203 216 214 211 226 209 208 207 207 211 206 207 209 206 205 205 206 206 208 210 210 209 206 204 205 205 205 206 209 208 205 208
249 247 245 245 245 242 235 230 223 220 222 227 233 238 238 234 234 238 240 237 231 227 223 210 198 198 207 203 197 204 212 218 216 215 221 214 213 212 208 215 218 217 216 209 206 208 209 210 211 213 214 216 214 212 211 211 211 209 211 214 213 212
254 248 245 245 246 242 235 231 226 222 221 221 228 236 241 241 240 242 243 240 240 241 231 218 210 203 209 211 199 200 213 218 215 214 219 219 214 214 212 215 222 226 226 218 210 208 210 213 214 215 216 218 219 219 218 218 218 217 215 219 219 218
261 254 249 244 243 241 237 231 226 224 223 223 225 230 235 237 240 244 245 241 240 245 243 231 223 214 211 212 208 205 209 215 219 218 217 218 213 212 214 218 224 229 231 227 220 213 211 213 216 217 219 221 223 224 225 225 224 224 222 224 224 223
268 261 255 248 244 242 240 235 229 227 223 224 227 229 232 234 236 240 244 246 244 244 244 239 230 223 219 217 215 211 211 214 218 221 218 216 215 211 214 219 224 230 231 230 229 223 215 213 216 219 222 224 226 227 228 230 230 230 230 230 230 229
273 265 259 251 247 243 242 238 234 233 227 226 229 230 232 233 235 236 237 242 245 245 245 243 235 228 226 225 222 215 218 220 216 221 222 217 215 212 214 219 222 228 233 232 232 229 222 217 216 218 222 226 229 231 231 232 234 234 235 235 235 235
275 267 260 253 251 246 244 241 238 236 232 230 231 232 233 234 236 236 236 239 241 244 246 246 243 235 230 231 231 225 228 230 221 222 228 224 220 215 215 219 221 224 230 235 237 233 227 223 219 218 220 224 229 233 233 234 236 238 238 239 239 239
272 266 260 255 253 250 247 245 242 238 236 235 234 235 235 235 236 234 236 239 241 244 244 244 245 241 235 234 235 231 232 235 229 228 232 232 228 224 222 220 221 223 225 231 239 240 233 228 224 221 221 222 227 233 234 235 238 240 242 242 242 243
267 263 260 256 253 251 250 248 247 243 239 238 237 238 238 236 237 236 236 239 242 245 246 245 244 242 240 238 238 238 235 234 235 234 235 237 237 235 230 223 221 224 227 231 236 244 242 237 232 227 225 224 225 231 234 235 237 240 243 244 244 245
264 261 258 255 253 252 251 249 248 247 242 241 240 240 241 239 239 239 240 240 242 244 246 249 247 244 242 242 243 243 237 233 237 239 239 241 241 242 240 231 222 222 229 232 231 235 242 245 241 233 230 230 230 233 235 235 237 238 241 245 246 246
259 258 257 255 256 256 255 253 251 251 248 245 243 243 244 244 243 242 243 244 245 245 245 248 249 248 246 246 246 246 241 235 236 240 241 242 242 246 248 245 236 226 225 229 228 227 235 249 252 241 235 234 234 236 239 239 239 239 241 244 246 247
255 254 255 256 258 260 260 259 259 259 257 254 251 247 246 248 249 247 246 247 248 249 248 248 250 250 249 249 249 249 248 242 238 238 240 241 241 243 247 251 251 240 225 223 228 227 232 246 257 251 241 238 238 239 243 245 245 244 243 244 246 248
253 252 252 254 254 257 260 262 264 266 266 266 262 258 253 250 252 253 252 251 251 252 251 251 251 251 252 251 250 250 250 249 245 242 240 239 239 242 243 246 253 251 239 229 229 229 230 239 251 254 247 244 245 244 245 246 247 248 248 247 246 249
250 252 252 254 253 253 256 259 262 265 268 270 271 270 266 260 256 255 255 254 254 254 254 254 253 253 253 253 252 251 250 250 250 249 246 243 242 243 243 244 248 251 251 246 238 233 232 235 245 254 254 250 250 248 247 247 248 249 250 251 250 250
246 252 254 256 257 255 255 256 259 263 265 268 271 273 273 272 268 263 260 257 256 257 257 256 255 254 254 254 253 252 250 250 250 251 251 250 248 246 245 246 247 249 251 251 247 242 238 237 241 249 254 253 251 252 251 251 252 253 254 254 253 253
243 252 255 259 264 264 262 261 262 264 266 269 272 275 277 277 276 274 270 265 261 260 258 256 255 254 254 254 254 253 252 251 250 251 252 253 253 252 250 248 248 248 248 250 250 247 243 241 240 243 250 252 252 253 256 256 255 255 257 257 255 254
241 250 254 260 268 274 276 274 271 269 270 272 274 276 279 279 279 279 277 274 270 265 261 259 256 255 253 253 254 254 253 253 252 251 252 253 254 255 255 253 250 249 247 248 248 246 244 242 240 243 248 250 250 251 254 260 262 259 255 255 256 256
240 248 255 261 272 283 286 289 289 284 281 281 280 280 281 281 282 281 281 280 277 272 268 264 261 257 255 253 253 253 253 253 254 253 253 254 254 255 256 256 254 252 249 247 245 245 247 243 240 246 249 250 250 251 249 244 253 262 261 256 253 254
244 249 257 266 274 285 287 289 294 293 292 289 287 285 285 286 285 284 284 284 282 279 274 270 266 263 259 256 254 254 253 253 253 254 255 255 255 255 256 256 256 254 251 248 245 245 248 248 247 250 253 254 252 251 249 239 232 243 258 261 258 255
249 253 260 270 275 282 285 286 289 291 292 291 289 287 286 288 288 286 285 285 285 284 280 276 271 267 264 260 257 255 254 254 253 254 254 256 256 256 256 256 256 255 252 250 247 247 249 251 251 251 252 255 254 251 250 245 237 232 236 250 262 265
251 257 264 274 278 281 285 287 288 290 292 293 292 289 285 286 288 289 288 286 286 285 283 281 276 272 269 264 261 258 256 255 254 254 254 255 256 256 256 257 257 257 255 253 250 249 250 252 253 253 252 253 254 255 254 248 242 240 236 237 247 259
253 262 268 279 284 284 286 288 288 290 292 293 295 293 289 286 285 286 287 287 286 285 284 282 279 277 273 270 267 263 259 257 255 254 254 255 256 256 256 256 257 258 258 256 254 252 252 254 255 255 255 255 253 255 257 250 242 242 242 239 239 241
256 266 272 280 286 287 288 288 288 288 290 292 294 295 294 290 287 284 284 285 285 285 285 283 281 278 276 273 271 268 265 263 260 257 255 254 255 256 256 255 256 257 258 258 257 255 254 254 254 254 254 255 253 253 255 248 241 242 243 240 242 241
261 269 275 281 285 287 288 287 287 288 288 290 292 294 295 293 290 286 283 283 284 284 284 284 283 281 278 275 273 272 270 268 266 264 261 257 255 254 255 255 255 255 256 257 257 256 254 252 251 252 252 254 255 254 253 247 242 243 245 241 240 242
266 271 276 281 284 285 285 285 286 287 287 289 290 293 295 293 291 288 285 283 284 284 285 285 284 283 281 278 275 274 272 271 270 268 266 264 260 257 255 254 254 253 254 255 255 255 255 253 252 252 252 253 254 254 253 251 248 247 247 246 243 242
269 272 276 279 281 281 282 283 284 284 285 286 288 291 292 291 288 286 286 285 284 284 285 285 285 285 284 282 279 276 274 273 272 271 269 267 265 262 258 256 253 251 251 252 253 253 254 254 254 254 253 252 252 253 253 253 252 250 249 250 248 245
269 272 276 277 279 279 280 281 282 282 282 283 285 288 289 287 284 283 284 286 286 286 286 284 283 284 285 285 283 281 278 275 274 273 273 271 269 266 263 260 257 253 250 249 251 251 252 253 253 254 254 254 253 253 254 254 253 252 251 251 249 245
269 273 275 277 277 278 279 280 280 280 280 281 283 285 285 284 282 280 282 285 287 289 289 288 287 285 285 284 284 284 282 279 276 274 273 273 272 270 267 264 261 258 254 250 249 249 250 251 252 253 254 254 254 252 253 253 252 252 252 250 248 244
268 271 274 276 277 278 280 280 279 278 279 281 282 283 283 282 281 280 281 284 288 290 290 291 291 290 289 287 286 285 284 282 280 277 274 273 272 272 271 269 265 262 258 254 251 249 249 249 249 251 252 253 253 253 253 252 250 251 251 249 247 245